Weather in Kotorsk

Russia / Pskov Oblast     58°24′29″N   29°31′12″E
temp.,
°C
wind,
m/s
gust,
m/s
humid.,
%
clouds,
%
prec.,
mm/h
press.,
hPa
HPBL,
m
2 july, sat
sat200:00+19se2677100 0.0 1021109
03:00+16se277251 0.0 1022122
06:00+18sse248249 0.0 1021113
09:00+23sse236099 0.0 1021410
12:00+27sse2346100 0.0 10211208
15:00+29s2336100 0.0 10201958
18:00+29ssw234372 0.0 10192005
21:00+23s227055 0.0 101833
3 july, sun
sun300:00+20s2278100 0.0 101815
03:00+19s2279100 0.0 101828
06:00+20ssw1280100 0.0 101864
09:00+24w1259100 0.0 1018363
12:00+29sw2244100 0.0 10171557
15:00+28wnw434992 0.0 10171349
18:00+25w256363 0.0 1017260
21:00+20nnw269389 2.3 1017145
4 july, mon
mon400:00+19n229887 1.9 101867
03:00+16nnw23965 2.0 101761
06:00+16nnw11881 0.1 101733
09:00+22nw11530 0.1 1017351
12:00+27s114355 0.0 10161140
15:00+27ssw3350100 0.3 10141701
18:00+27wsw235222 0.0 10131002
21:00+19sw119048 0.8 101312
5 july, tue
tue500:00+18s2291100 0.1 101336
03:00+17sw2495100 0.8 101398
06:00+18sw1498100 1.8 1012130
09:00+21wsw25883 3.3 1012291
12:00+25wsw35490 0.6 10121477
15:00+27wsw5638100 0.6 10112465
18:00+23w4755100 0.0 10121160
21:00+19wnw4962100 0.0 1012542
6 july, wed
wed600:00+18w396051 0.0 1013624
03:00+13wsw257815 0.0 1014119
06:00+14wsw26800 0.0 1014207
09:00+18sw465884 0.0 10141150
12:00+21wsw45435 0.0 10131766
15:00+23wsw453892 0.0 10122507
18:00+19w365847 0.0 1012431
21:00+17sw247052 0.0 1011114